Tracking 28096 objects as of 29-Sep-2023
HD Live streaming from Space Station
objects crossing your sky now

STERNULA-1

Track STERNULA-1 now!
10-day predictions


NORAD ID: 55044
Int'l Code: 2023-001AM
Perigee: 507.3 km
Apogee: 523.7 km
Inclination: 97.5 °
Period: 94.8 minutes
Semi major axis: 6886 km
RCS: Unknown
Launch date: January 3, 2023
Source: Denmark (DEN)
Launch site: AIR FORCE EASTERN TEST RANGE (AFETR)
Your satellite tracking list
Your tracking list is empty




NASA's NSSDC Master Catalog

Two Line Element Set (TLE):
1 55044U 23001AM  23272.02948135  .00016497  00000-0  78509-3 0  9991
2 55044  97.4717 330.3839 0011898  23.2562 336.9208 15.19176445 40818
Source of the keplerian elements: AFSPC